[[{"header":{"parameterUnit":"m.s-1","parameterCategory":1,"la1":30.2991,"la2":30.254,"lo1":-89.0895,"lo2":-89.0444,"dy":0.0017,"dx":0.0017,"nx":28,"ny":28,"refTime":"2023-09-15T03:00:00:Z","depth":0,"parameterNumber":2,"parameterNumberName":"U-component_of_WINDS"},"data":[0,0,0,0,0,0,0,0,0,0,0,0,0,0,0,0,0,0,0,0,0,0,0,0,0,0,0,0,0,0,0,0,0,0,0,0,0,0,0,0,0,0,0,0,0,0,0,0,0,0,0,0,0,0,0,0,0,0,0.7211,0.7211,0,0.7212,0.7212,0.7212,0.7137,0.7135,0.7133,0.7131,0.7138,0.714,0.7142,0,0,0,0,0,0,0,0,0,0,0,0,0,0.7147,0.7148,0.7211,0.7211,0.7211,0.7212,0.7212,0.7212,0.7137,0.7135,0.7132,0.713,0.7138,0.714,0.7143,0,0,0,0,0,0,0,0,0,0,0,0,0,0.7164,0.7149,0.7211,0.7173,0.717,0.7212,0.7212,0.7212,0.7138,0.7135,0.7132,0.7129,0.7137,0.714,0.7143,0.7223,0,0,0.7152,0.7154,0,0,0,0,0,0,0,0,0.7163,0.7167,0.7179,0.7176,0.7172,0.7171,0.7192,0.7216,0.7139,0.715,0.7131,0.7128,0.7152,0.7154,0.7161,0.7223,0.7224,0.7153,0.7155,0.7156,0.7157,0,0,0,0,0,0,0,0.7162,0.7166,0.7211,0.7179,0.7175,0.7158,0.7157,0.7197,0.7168,0.7149,0.7143,0.7144,0.715,0.7158,0.7161,0.7224,0.7153,0.7155,0.7157,0.7159,0.7352,0.7355,0,0,0,0,0,0,0.7165,0.7166,0.7211,0.7211,0.716,0.7161,0.716,0.7175,0.7168,0.7164,0.7147,0.7141,0.7154,0.7157,0.7161,0.7254,0.7156,0.7159,0.7161,0.7348,0.7352,0.7356,0,0,0,0,0,0,0.7164,0.717,0.7211,0.7187,0.7191,0.7166,0.7182,0.7176,0.7184,0.7166,0.7161,0.716,0.7152,0.7156,0.7208,0.7253,0.716,0.7163,0.7345,0.735,0.7354,0.7441,0,0,0,0,0,0,0.7163,0.717,0.7199,0.7188,0.7192,0.7257,0.7185,0.7179,0.7189,0.7182,0.7177,0.7174,0.715,0.7203,0.7211,0.7256,0.7166,0.734,0.7347,0.7353,0.7434,0.7448,0.746,0,0,0,0,0,0.7161,0.7225,0.7201,0.7207,0.7228,0.726,0.7263,0.7232,0.7193,0.7223,0.7211,0.7174,0.7246,0.7209,0.7217,0.7263,0.7337,0.7345,0.7352,0.7428,0.7445,0.746,0,0,0,0,0,0,0.7244,0.7223,0.7196,0.7258,0.7261,0.7247,0.7284,0.7252,0.7267,0.7259,0.7222,0.7222,0.728,0.7276,0.7235,0.734,0.7285,0.7295,0.734,0.7357,0.737,0.737,0.7168,0,0,0,0,0,0.7269,0.7295,0.7276,0.7333,0.7335,0.7309,0.7322,0.7298,0.7301,0.7302,0.7294,0.7299,0.7323,0.7339,0.736,0.7433,0.7431,0.7468,0.7482,0.7493,0.7501,0.754,0.7556,0.738,0.738,0.738,0,0,0.7323,0.7314,0.7333,0.7349,0.7349,0.7378,0.7311,0.7345,0.7367,0.7308,0.7355,0.735,0.7353,0.7415,0.7442,0.7414,0.7549,0.7502,0.7511,0.7514,0.7549,0.7566,0.758,0.7385,0.7384,0.7383,0,0,0.7434,0.743,0.7477,0.7477,0.7476,0.7459,0.747,0.746,0.7454,0.75,0.7457,0.7483,0.7525,0.7529,0.7536,0.7649,0.7615,0.7657,0.7726,0.7764,0.7778,0.779,0.7831,0.7846,0.7665,0.7666,0.7666,0,0.7501,0.7542,0.7505,0.7542,0.7551,0.7496,0.7544,0.7547,0.7554,0.7562,0.753,0.7581,0.7579,0.7642,0.7669,0.7677,0.769,0.7657,0.7778,0.779,0.7801,0.784,0.7855,0.7671,0.767,0.7669,0.7669,0,0.7624,0.7653,0.7691,0.7697,0.771,0.7752,0.7724,0.7741,0.7716,0.7702,0.7751,0.7747,0.7766,0.7779,0.7756,0.7838,0.7821,0.7784,0.7729,0.7824,0.7859,0.7874,0.7678,0.7676,0.7674,0.7673,0,0,0.7789,0.7774,0.7788,0.779,0.7785,0.7808,0.7848,0.7864,0.7881,0.7887,0.7921,0.7957,0.7923,0.7931,0.7908,0.7941,0.8031,0.79,0.79,0.7925,0.8122,0.815,0.8168,0.8008,0.8011,0.8013,0.8122,0,0.7898,0.7963,0.7932,0.8002,0.8029,0.7977,0.8012,0.8014,0.8002,0.8024,0.8011,0.8037,0.799,0.7995,0.8025,0.8014,0.807,0.8005,0.804,0.8042,0.8042,0.8186,0.8216,0.832,0.8136,0.8138,0.814,0,0.8034,0.8044,0.8116,0.8106,0.8116,0.8147,0.816,0.8181,0.8182,0.8171,0.8181,0.8149,0.8189,0.8133,0.8188,0.8144,0.8157,0.8153,0.8157,0.816,0.8097,0.8194,0.8352,0.8368,0.8161,0.816,0.8158,0,0.8148,0.818,0.8227,0.823,0.8219,0.8243,0.8239,0.8237,0.8249,0.8261,0.8268,0.8285,0.8295,0.8309,0.8284,0.8245,0.8343,0.8285,0.8336,0.8337,0.836,0.8359,0.8523,0.8367,0.8367,0.8366,0.8366,0,0.8272,0.8319,0.8278,0.8307,0.8358,0.8321,0.8373,0.8364,0.8363,0.839,0.8348,0.8375,0.8339,0.8364,0.8344,0.8393,0.8398,0.8391,0.8385,0.8395,0.8396,0.8403,0.8396,0.8371,0.837,0.8369,0.8368,0,0.8409,0.8383,0.8431,0.8416,0.8413,0.8451,0.8439,0.8466,0.845,0.8486,0.8493,0.8469,0.8495,0.8471,0.8497,0.8483,0.8549,0.8533,0.8548,0.8544,0.8597,0.8592,0.8771,0.8793,0.8623,0.8625,0.8626,0,0.849,0.8524,0.8512,0.8527,0.8526,0.855,0.8561,0.8527,0.8541,0.8545,0.8572,0.8594,0.861,0.8654,0.8641,0.866,0.8644,0.8706,0.8647,0.8656,0.8646,0.8644,0.8648,0.8718,0.872,0.8722,0.8723,0,0.8638,0.8623,0.864,0.8654,0.8668,0.8677,0.8683,0.8698,0.8663,0.8681,0.8706,0.8718,0.8743,0.8766,0.8781,0.8779,0.8746,0.8742,0.8755,0.8765,0.8773,0.877,0.8581,0.8738,0.8736,0.8735,0.8735,0.8734,0.875,0.8777,0.8773,0.8794,0.8794,0.8801,0.8825,0.8812,0.8832,0.8848,0.8827,0.8859,0.8859,0.8875,0.8877,0.8902,0.8877,0.8896,0.8901,0.8906,0.8914,0.8768,0.8905,0.8905,0.8904,0.8904,0.8903,0,0.8895,0.889,0.8909,0.8918,0.8934,0.8899,0.8904,0.8921,0.8948,0.895,0.8966,0.8996,0.9018,0.9005,0.9024,0.9047,0.9032,0.9053,0.9051,0.9052,0.8935,0.8922,0.9065,0.9065,0.9065,0.9065,0.9065,0.9065,0.8973,0.9018,0.9003,0.9049,0.9043,0.9072,0.9078,0.9084,0.9085,0.9119,0.9136,0.9127,0.9124,0.9142,0.9161,0.9157,0.9167,0.9193,0.9184,0.9076,0.906,0.9045,0.9032,0.9196,0.9196,0.9298,0.9299,0.93]},{"header":{"parameterUnit":"m.s-1","parameterCategory":1,"la1":30.2991,"la2":30.254,"lo1":-89.0895,"lo2":-89.0444,"dy":0.0017,"dx":0.0017,"nx":28,"ny":28,"refTime":"2023-09-15T03:00:00:Z","depth":0,"parameterNumber":3,"parameterNumberName":"V-component_of_WINDS"},"data":[0,0,0,0,0,0,0,0,0,0,0,0,0,0,0,0,0,0,0,0,0,0,0,0,0,0,0,0,0,0,0,0,0,0,0,0,0,0,0,0,0,0,0,0,0,0,0,0,0,0,0,0,0,0,0,0,0,0,-0.4107,-0.4108,0,-0.414,-0.414,-0.4141,-0.4174,-0.4175,-0.4175,-0.4175,-0.421,-0.421,-0.4211,0,0,0,0,0,0,0,0,0,0,0,0,0,-0.4075,-0.4075,-0.4107,-0.4108,-0.4108,-0.414,-0.414,-0.4141,-0.4174,-0.4175,-0.4175,-0.4176,-0.421,-0.421,-0.4211,0,0,0,0,0,0,0,0,0,0,0,0,0,-0.4096,-0.4075,-0.4107,-0.4128,-0.4131,-0.414,-0.414,-0.4141,-0.4174,-0.4175,-0.4175,-0.4176,-0.4209,-0.421,-0.4211,-0.4202,0,0,-0.4213,-0.4213,0,0,0,0,0,0,0,0,-0.4095,-0.4098,-0.4125,-0.4127,-0.413,-0.4154,-0.4141,-0.4161,-0.4174,-0.4157,-0.4175,-0.4176,-0.4191,-0.4193,-0.4197,-0.4203,-0.4205,-0.4213,-0.4214,-0.4214,-0.4214,0,0,0,0,0,0,0,-0.4094,-0.4096,-0.412,-0.4125,-0.4128,-0.4137,-0.4141,-0.4145,-0.417,-0.4159,-0.4161,-0.4165,-0.4192,-0.4197,-0.4199,-0.4205,-0.4213,-0.4214,-0.4214,-0.4214,-0.4206,-0.4205,0,0,0,0,0,0,-0.4089,-0.4095,-0.4119,-0.4121,-0.4114,-0.4137,-0.4141,-0.4145,-0.417,-0.4174,-0.4164,-0.4166,-0.4195,-0.4198,-0.42,-0.4191,-0.4214,-0.4215,-0.4215,-0.4207,-0.4206,-0.4205,0,0,0,0,0,0,-0.4088,-0.4091,-0.4118,-0.4109,-0.4113,-0.4137,-0.4141,-0.4145,-0.415,-0.4174,-0.4178,-0.4164,-0.4196,-0.4199,-0.4201,-0.4193,-0.4215,-0.4216,-0.4207,-0.4206,-0.4205,-0.4174,0,0,0,0,0,0,-0.4087,-0.409,-0.4087,-0.4108,-0.4113,-0.4118,-0.414,-0.4146,-0.4151,-0.4154,-0.4175,-0.4179,-0.4197,-0.42,-0.4202,-0.4194,-0.4216,-0.4208,-0.4207,-0.4206,-0.4176,-0.4172,-0.4169,0,0,0,0,0,-0.4086,-0.4076,-0.4086,-0.4089,-0.4109,-0.4117,-0.412,-0.414,-0.415,-0.4147,-0.4163,-0.4179,-0.4193,-0.42,-0.4202,-0.4195,-0.4209,-0.4207,-0.4206,-0.4177,-0.4173,-0.4169,0,0,0,0,0,0,-0.4053,-0.408,-0.4091,-0.4088,-0.41,-0.4123,-0.412,-0.4134,-0.4144,-0.4146,-0.417,-0.4175,-0.4174,-0.4185,-0.4191,-0.4188,-0.4203,-0.4202,-0.4181,-0.4177,-0.4173,-0.4171,-0.4217,0,0,0,0,0,-0.4046,-0.405,-0.4073,-0.4069,-0.4074,-0.4096,-0.41,-0.4114,-0.4128,-0.4133,-0.4148,-0.4161,-0.4169,-0.4173,-0.4181,-0.4177,-0.4183,-0.4174,-0.417,-0.4167,-0.4166,-0.4165,-0.4162,-0.42,-0.42,-0.42,0,0,-0.4031,-0.4045,-0.4047,-0.4062,-0.4073,-0.4078,-0.41,-0.4103,-0.4107,-0.4134,-0.4137,-0.4148,-0.4164,-0.4163,-0.4164,-0.4172,-0.4157,-0.4165,-0.4162,-0.4163,-0.4163,-0.416,-0.4157,-0.4199,-0.4199,-0.4199,0,0,-0.4005,-0.4016,-0.4014,-0.4025,-0.4041,-0.4056,-0.4055,-0.4076,-0.4084,-0.4088,-0.4108,-0.4113,-0.4125,-0.4136,-0.4143,-0.4122,-0.4137,-0.4124,-0.4106,-0.4105,-0.4102,-0.4099,-0.4092,-0.4089,-0.4123,-0.4123,-0.4123,0,-0.3984,-0.3991,-0.4012,-0.4014,-0.4021,-0.4045,-0.4043,-0.4052,-0.4071,-0.4075,-0.4084,-0.41,-0.4113,-0.4115,-0.411,-0.4114,-0.4115,-0.4122,-0.41,-0.4098,-0.4096,-0.409,-0.4087,-0.4121,-0.4121,-0.4121,-0.4121,0,-0.3965,-0.3969,-0.3966,-0.3983,-0.3989,-0.3989,-0.401,-0.4014,-0.4027,-0.4041,-0.4045,-0.406,-0.4072,-0.4074,-0.4087,-0.4078,-0.4083,-0.4096,-0.4112,-0.409,-0.4085,-0.4083,-0.4118,-0.4119,-0.412,-0.412,0,0,-0.392,-0.3949,-0.3947,-0.3955,-0.3975,-0.3979,-0.3981,-0.3992,-0.3995,-0.4007,-0.4009,-0.4019,-0.4031,-0.4039,-0.4054,-0.4053,-0.4036,-0.4066,-0.4067,-0.4061,-0.4028,-0.4019,-0.4016,-0.4046,-0.4046,-0.4046,-0.4027,0,-0.3899,-0.3903,-0.3922,-0.392,-0.3925,-0.3948,-0.395,-0.3962,-0.3975,-0.3981,-0.3996,-0.4003,-0.4018,-0.4023,-0.4023,-0.4038,-0.403,-0.404,-0.405,-0.405,-0.4046,-0.4013,-0.4003,-0.3985,-0.4025,-0.4025,-0.4025,0,-0.3875,-0.3885,-0.3884,-0.3904,-0.3907,-0.3908,-0.392,-0.3925,-0.394,-0.395,-0.3959,-0.3975,-0.3979,-0.3993,-0.3999,-0.4005,-0.401,-0.4018,-0.4018,-0.402,-0.4036,-0.4015,-0.398,-0.3977,-0.4021,-0.4022,-0.4022,0,-0.3843,-0.3856,-0.3858,-0.3864,-0.3887,-0.3888,-0.3897,-0.3913,-0.3919,-0.393,-0.3934,-0.3945,-0.3951,-0.396,-0.3979,-0.3988,-0.3983,-0.3999,-0.3991,-0.3991,-0.399,-0.399,-0.3956,-0.3992,-0.3992,-0.3992,-0.3992,0,-0.3818,-0.3816,-0.3844,-0.3845,-0.3845,-0.3866,-0.3865,-0.3877,-0.3891,-0.3895,-0.3915,-0.3919,-0.3943,-0.395,-0.3965,-0.3968,-0.397,-0.3979,-0.3983,-0.3977,-0.3976,-0.3981,-0.3983,-0.3991,-0.3991,-0.3991,-0.3991,0,-0.3783,-0.3801,-0.3804,-0.3826,-0.3831,-0.383,-0.3849,-0.3851,-0.3865,-0.387,-0.3872,-0.3894,-0.3903,-0.3923,-0.3937,-0.3947,-0.3946,-0.3953,-0.3941,-0.3944,-0.3936,-0.3937,-0.3904,-0.3902,-0.3938,-0.3938,-0.3938,0,-0.3766,-0.3765,-0.3787,-0.3791,-0.38,-0.3806,-0.3812,-0.3833,-0.3839,-0.3856,-0.3856,-0.3866,-0.3876,-0.3889,-0.3906,-0.3917,-0.3925,-0.3913,-0.3927,-0.3922,-0.3926,-0.3926,-0.3927,-0.391,-0.391,-0.3909,-0.3909,0,-0.3734,-0.3743,-0.3751,-0.3762,-0.3769,-0.3778,-0.379,-0.3792,-0.3816,-0.3821,-0.383,-0.3837,-0.3852,-0.3862,-0.3875,-0.3886,-0.3902,-0.3904,-0.3904,-0.3898,-0.3892,-0.3896,-0.3934,-0.3905,-0.3906,-0.3906,-0.3906,-0.3906,-0.3708,-0.3709,-0.3724,-0.3733,-0.3743,-0.3753,-0.3756,-0.377,-0.3778,-0.3791,-0.3803,-0.3811,-0.3827,-0.3847,-0.3856,-0.3863,-0.3871,-0.3869,-0.3869,-0.3869,-0.3867,-0.389,-0.3866,-0.3866,-0.3866,-0.3866,-0.3866,0,-0.3678,-0.3689,-0.3696,-0.3711,-0.3717,-0.3731,-0.3744,-0.3749,-0.3756,-0.3768,-0.3777,-0.3788,-0.3798,-0.3816,-0.3828,-0.383,-0.3838,-0.3832,-0.3833,-0.3835,-0.3858,-0.3859,-0.3826,-0.3826,-0.3826,-0.3826,-0.3826,-0.3826,-0.3663,-0.3665,-0.3676,-0.3685,-0.3696,-0.3704,-0.371,-0.3719,-0.373,-0.3741,-0.3749,-0.3761,-0.3776,-0.3789,-0.3799,-0.3804,-0.3808,-0.3801,-0.3808,-0.383,-0.3834,-0.3837,-0.3837,-0.3801,-0.3801,-0.3785,-0.3785,-0.3785]}]]